| time (UTC) | temp F | wind direction | speed knots | gust knots | rain 1hr in | rain 24hr in | rain mn in | humidity % | barometer mb |
| 20260510190433 | 49 | 286 | 7.8 | 20.9 | 0.00 | 0.00 | 0.00 | 47 | 1013.0 |
| 20260510185929 | 51 | 253 | 14.8 | 15.6 | 0.00 | 0.00 | 0.00 | 46 | 1013.2 |
| 20260510185427 | 51 | 302 | 8.7 | 15.6 | 0.00 | 0.00 | 0.00 | 47 | 1013.0 |
| 20260510184924 | 50 | 293 | 11.3 | 22.6 | 0.00 | 0.00 | 0.00 | 47 | 1013.1 |
| 20260510184421 | 51 | 286 | 7.0 | 18.2 | 0.00 | 0.00 | 0.00 | 47 | 1013.1 |
| 20260510183920 | 50 | 282 | 14.8 | 20.0 | 0.00 | 0.00 | 0.00 | 45 | 1013.0 |
| 20260510183418 | 50 | 259 | 13.0 | 17.4 | 0.00 | 0.00 | 0.00 | 46 | 1013.0 |
| 20260510182913 | 51 | 261 | 15.6 | 22.6 | 0.00 | 0.00 | 0.00 | 44 | 1013.0 |
| 20260510182409 | 49 | 264 | 9.6 | 20.0 | 0.00 | 0.00 | 0.00 | 46 | 1012.7 |
| 20260510181905 | 50 | 274 | 9.6 | 20.9 | 0.00 | 0.00 | 0.00 | 44 | 1012.9 |
| 20260510181403 | 50 | 250 | 13.9 | 27.8 | 0.00 | 0.00 | 0.00 | 44 | 1012.8 |
| 20260510180859 | 50 | 291 | 13.0 | 26.9 | 0.00 | 0.00 | 0.00 | 44 | 1012.9 |
| 20260510180356 | 49 | 279 | 17.4 | 19.1 | 0.00 | 0.00 | 0.00 | 43 | 1012.8 |
| 20260510175853 | 49 | 292 | 13.0 | 22.6 | 0.00 | 0.00 | 0.00 | 44 | 1012.8 |
| 20260510175348 | 49 | 303 | 12.2 | 20.0 | 0.00 | 0.00 | 0.00 | 45 | 1012.8 |
| 20260510174845 | 50 | 284 | 5.2 | 16.5 | 0.00 | 0.00 | 0.00 | 46 | 1012.7 |
| 20260510174343 | 49 | 245 | 14.8 | 26.1 | 0.00 | 0.00 | 0.00 | 48 | 1012.7 |
| 20260510173839 | 49 | 287 | 10.4 | 18.2 | 0.00 | 0.00 | 0.00 | 50 | 1012.6 |
| 20260510173335 | 49 | 298 | 8.7 | 14.8 | 0.00 | 0.00 | 0.00 | 51 | 1012.4 |
| 20260510172831 | 50 | 283 | 8.7 | 23.5 | 0.00 | 0.00 | 0.00 | 51 | 1012.6 |
| 20260510172327 | 49 | 279 | 15.6 | 22.6 | 0.00 | 0.00 | 0.00 | 49 | 1012.4 |
| 20260510171823 | 48 | 305 | 7.0 | 19.1 | 0.00 | 0.00 | 0.00 | 55 | 1012.3 |
| 20260510171321 | 48 | 280 | 8.7 | 21.7 | 0.00 | 0.00 | 0.00 | 53 | 1012.4 |
| 20260510170818 | 48 | 314 | 15.6 | 19.1 | 0.00 | 0.00 | 0.00 | 54 | 1012.6 |
| 20260510170314 | 48 | 279 | 9.6 | 20.9 | 0.00 | 0.00 | 0.00 | 55 | 1012.2 |
| 20260510165809 | 47 | 295 | 10.4 | 19.1 | 0.00 | 0.00 | 0.00 | 59 | 1012.5 |
| 20260510165307 | 47 | 298 | 13.0 | 20.0 | 0.00 | 0.00 | 0.00 | 59 | 1012.4 |
| 20260510164803 | 46 | 310 | 7.8 | 21.7 | 0.00 | 0.00 | 0.00 | 58 | 1012.4 |
| 20260510164301 | 46 | 310 | 7.8 | 26.9 | 0.00 | 0.00 | 0.00 | 59 | 1012.3 |
| 20260510163800 | 48 | 274 | 10.4 | 20.9 | 0.00 | 0.00 | 0.00 | 58 | 1012.5 |
| 20260510163257 | 48 | 276 | 11.3 | 22.6 | 0.00 | 0.00 | 0.00 | 59 | 1012.3 |
| 20260510162756 | 46 | 289 | 7.8 | 20.0 | 0.00 | 0.00 | 0.00 | 61 | 1012.4 |
| 20260510162254 | 46 | 303 | 18.2 | 22.6 | 0.00 | 0.00 | 0.00 | 62 | 1012.5 |
| 20260510161749 | 46 | 307 | 10.4 | 19.1 | 0.00 | 0.00 | 0.00 | 64 | 1012.2 |
| 20260510161245 | 47 | 303 | 10.4 | 19.1 | 0.00 | 0.00 | 0.00 | 61 | 1012.3 |
| 20260510160743 | 47 | 310 | 13.0 | 20.0 | 0.00 | 0.00 | 0.00 | 61 | 1012.3 |
| 20260510160239 | 46 | 281 | 6.1 | 17.4 | 0.00 | 0.00 | 0.00 | 67 | 1012.2 |
| 20260510155734 | 46 | 277 | 16.5 | 20.9 | 0.00 | 0.00 | 0.00 | 67 | 1012.2 |
| 20260510155230 | 46 | 260 | 13.0 | 14.8 | 0.00 | 0.00 | 0.00 | 66 | 1011.8 |
| 20260510154727 | 46 | 311 | 8.7 | 19.1 | 0.00 | 0.00 | 0.00 | 66 | 1011.9 |
| 20260510154222 | 46 | 286 | 7.8 | 14.8 | 0.00 | 0.00 | 0.00 | 66 | 1011.8 |
| 20260510153718 | 46 | 259 | 13.9 | 21.7 | 0.00 | 0.00 | 0.00 | 66 | 1012.0 |
| 20260510153214 | 45 | 260 | 19.1 | 26.9 | 0.00 | 0.00 | 0.00 | 68 | 1012.1 |
| 20260510152711 | 45 | 269 | 20.9 | 21.7 | 0.00 | 0.00 | 0.00 | 67 | 1012.0 |
| 20260510152206 | 46 | 265 | 18.2 | 19.1 | 0.00 | 0.00 | 0.00 | 69 | 1011.6 |
| 20260510151704 | 44 | 257 | 9.6 | 20.9 | 0.00 | 0.00 | 0.00 | 70 | 1011.6 |
| 20260510151203 | 46 | 266 | 22.6 | 23.5 | 0.00 | 0.00 | 0.00 | 68 | 1011.6 |
| 20260510150657 | 46 | 267 | 20.0 | 22.6 | 0.00 | 0.00 | 0.00 | 68 | 1011.6 |
| 20260510150153 | 45 | 313 | 6.1 | 19.1 | 0.00 | 0.00 | 0.00 | 69 | 1011.4 |
| 20260510145649 | 45 | 268 | 9.6 | 20.9 | 0.00 | 0.00 | 0.00 | 70 | 1011.4 |
| 20260510145146 | 45 | 300 | 11.3 | 26.9 | 0.00 | 0.00 | 0.00 | 68 | 1011.3 |
| 20260510144642 | 45 | 326 | 9.6 | 20.0 | 0.00 | 0.00 | 0.00 | 69 | 1011.2 |
| 20260510144139 | 45 | 264 | 17.4 | 19.1 | 0.00 | 0.00 | 0.00 | 71 | 1010.8 |
| 20260510143633 | 45 | 292 | 7.8 | 24.3 | 0.00 | 0.00 | 0.00 | 72 | 1011.2 |
| 20260510143130 | 44 | 296 | 13.9 | 22.6 | 0.00 | 0.00 | 0.00 | 72 | 1011.4 |
| 20260510142627 | 44 | 282 | 12.2 | 20.9 | 0.00 | 0.00 | 0.00 | 74 | 1011.1 |
| 20260510142124 | 45 | 288 | 12.2 | 18.2 | 0.00 | 0.00 | 0.00 | 73 | 1010.6 |
| 20260510141620 | 45 | 277 | 13.9 | 20.9 | 0.00 | 0.00 | 0.00 | 72 | 1010.8 |
| 20260510141119 | 44 | 287 | 11.3 | 19.1 | 0.00 | 0.00 | 0.00 | 73 | 1010.8 |
| 20260510140615 | 44 | 274 | 10.4 | 22.6 | 0.00 | 0.00 | 0.00 | 73 | 1010.8 |
| 20260510140109 | 44 | 332 | 8.7 | 18.2 | 0.00 | 0.00 | 0.00 | 74 | 1010.8 |
| 20260510135604 | 44 | 273 | 11.3 | 19.1 | 0.00 | 0.00 | 0.00 | 73 | 1010.5 |
| 20260510135101 | 44 | 309 | 9.6 | 16.5 | 0.00 | 0.00 | 0.00 | 75 | 1010.3 |
| 20260510134558 | 44 | 261 | 8.7 | 14.8 | 0.00 | 0.00 | 0.00 | 75 | 1010.4 |
| 20260510134055 | 44 | 247 | 14.8 | 15.6 | 0.00 | 0.00 | 0.00 | 74 | 1010.5 |
| 20260510133551 | 43 | 254 | 10.4 | 20.0 | 0.00 | 0.00 | 0.00 | 75 | 1010.4 |
| 20260510133046 | 43 | 279 | 11.3 | 16.5 | 0.00 | 0.00 | 0.00 | 76 | 1010.2 |
| 20260510132543 | 43 | 244 | 8.7 | 15.6 | 0.00 | 0.00 | 0.00 | 77 | 1010.2 |
| 20260510132040 | 42 | 255 | 6.1 | 16.5 | 0.00 | 0.00 | 0.00 | 79 | 1010.3 |
| 20260510131538 | 43 | 285 | 5.2 | 13.0 | 0.00 | 0.00 | 0.00 | 78 | 1010.1 |
| 20260510131035 | 42 | 291 | 6.1 | 17.4 | 0.00 | 0.00 | 0.00 | 78 | 1010.4 |
| 20260510130531 | 42 | 258 | 13.0 | 19.1 | 0.00 | 0.00 | 0.00 | 77 | 1009.9 |
| 20260510130029 | 42 | 255 | 6.1 | 11.3 | 0.00 | 0.00 | 0.00 | 77 | 1010.0 |
| 20260510125525 | 42 | 276 | 8.7 | 13.9 | 0.00 | 0.00 | 0.00 | 78 | 1010.1 |
| 20260510125022 | 41 | 274 | 10.4 | 19.1 | 0.00 | 0.00 | 0.00 | 78 | 1009.8 |
| 20260510124518 | 42 | 309 | 7.8 | 10.4 | 0.00 | 0.00 | 0.00 | 78 | 1009.8 |
| 20260510124015 | 42 | 267 | 7.8 | 12.2 | 0.00 | 0.00 | 0.00 | 78 | 1009.8 |
| 20260510123510 | 41 | 284 | 12.2 | 16.5 | 0.00 | 0.00 | 0.00 | 78 | 1009.7 |
| 20260510123006 | 41 | 273 | 7.0 | 13.0 | 0.00 | 0.00 | 0.00 | 78 | 1009.5 |
| 20260510122502 | 41 | 264 | 7.8 | 17.4 | 0.00 | 0.00 | 0.00 | 78 | 1009.6 |
| 20260510121959 | 41 | 229 | 6.1 | 14.8 | 0.00 | 0.00 | 0.00 | 79 | 1009.6 |
| 20260510121455 | 41 | 285 | 5.2 | 13.0 | 0.00 | 0.00 | 0.00 | 79 | 1009.7 |
| 20260510120953 | 40 | 256 | 7.0 | 18.2 | 0.00 | 0.00 | 0.00 | 79 | 1009.3 |
| 20260510120450 | 40 | 254 | 9.6 | 14.8 | 0.00 | 0.00 | 0.00 | 79 | 1009.2 |
| 20260510115946 | 40 | 269 | 13.0 | 19.1 | 0.00 | 0.00 | 0.00 | 78 | 1009.3 |
| 20260510115443 | 40 | 254 | 11.3 | 17.4 | 0.00 | 0.00 | 0.00 | 78 | 1009.4 |
| 20260510114939 | 40 | 267 | 8.7 | 18.2 | 0.00 | 0.00 | 0.00 | 79 | 1009.3 |
| 20260510114436 | 40 | 293 | 7.8 | 21.7 | 0.00 | 0.00 | 0.00 | 79 | 1009.2 |
| 20260510113932 | 40 | 273 | 7.8 | 13.0 | 0.00 | 0.00 | 0.00 | 79 | 1009.4 |
| 20260510113427 | 40 | 254 | 7.8 | 19.1 | 0.00 | 0.00 | 0.00 | 79 | 1009.2 |
| 20260510112925 | 40 | 265 | 11.3 | 21.7 | 0.00 | 0.00 | 0.00 | 79 | 1008.9 |
| 20260510112422 | 40 | 268 | 5.2 | 11.3 | 0.00 | 0.00 | 0.00 | 79 | 1008.6 |
| 20260510111918 | 40 | 302 | 7.8 | 11.3 | 0.00 | 0.00 | 0.00 | 79 | 1008.9 |
| 20260510111414 | 39 | 248 | 5.2 | 10.4 | 0.00 | 0.00 | 0.00 | 79 | 1008.6 |
| 20260510110910 | 39 | 267 | 6.1 | 14.8 | 0.00 | 0.00 | 0.00 | 80 | 1008.5 |
| 20260510110406 | 39 | 256 | 11.3 | 12.2 | 0.00 | 0.00 | 0.00 | 80 | 1008.5 |
| 20260510105903 | 39 | 249 | 8.7 | 10.4 | 0.00 | 0.00 | 0.00 | 80 | 1008.3 |
| 20260510105403 | 38 | 283 | 7.8 | 10.4 | 0.00 | 0.00 | 0.00 | 81 | 1008.2 |
| 20260510104859 | 37 | 259 | 5.2 | 7.8 | 0.00 | 0.00 | 0.00 | 83 | 1008.3 |
| 20260510104356 | 37 | 289 | 6.1 | 11.3 | 0.00 | 0.00 | 0.00 | 83 | 1008.2 |
| 20260510103852 | 37 | 273 | 7.8 | 7.8 | 0.00 | 0.00 | 0.00 | 83 | 1007.8 |
| 20260510103350 | 37 | 246 | 4.3 | 11.3 | 0.00 | 0.00 | 0.00 | 83 | 1008.0 |
| 20260510102845 | 37 | 248 | 4.3 | 8.7 | 0.00 | 0.00 | 0.00 | 83 | 1007.7 |
| 20260510102341 | 37 | 254 | 7.8 | 13.0 | 0.00 | 0.00 | 0.00 | 83 | 1007.4 |
| 20260510101838 | 37 | 256 | 5.2 | 8.7 | 0.00 | 0.00 | 0.00 | 85 | 1007.5 |
| 20260510101337 | 37 | 251 | 5.2 | 8.7 | 0.00 | 0.00 | 0.00 | 85 | 1007.3 |
| 20260510100832 | 37 | 252 | 4.3 | 10.4 | 0.00 | 0.00 | 0.00 | 85 | 1007.4 |
| 20260510100330 | 37 | 261 | 7.8 | 9.6 | 0.00 | 0.00 | 0.00 | 85 | 1007.1 |
| 20260510095826 | 37 | 266 | 4.3 | 13.0 | 0.00 | 0.00 | 0.00 | 84 | 1007.0 |
| 20260510095321 | 37 | 253 | 6.1 | 12.2 | 0.00 | 0.00 | 0.00 | 84 | 1006.9 |
| 20260510094820 | 37 | 273 | 9.6 | 11.3 | 0.00 | 0.00 | 0.00 | 85 | 1006.7 |
| 20260510094316 | 37 | 262 | 9.6 | 11.3 | 0.00 | 0.00 | 0.00 | 84 | 1006.6 |
| 20260510093813 | 37 | 269 | 6.1 | 8.7 | 0.00 | 0.00 | 0.00 | 84 | 1006.5 |
| 20260510093309 | 37 | 258 | 7.0 | 11.3 | 0.00 | 0.00 | 0.00 | 84 | 1006.6 |
| 20260510092805 | 38 | 276 | 3.5 | 9.6 | 0.00 | 0.00 | 0.00 | 84 | 1006.5 |
| 20260510092301 | 38 | 271 | 5.2 | 9.6 | 0.00 | 0.00 | 0.00 | 83 | 1006.6 |
| 20260510091756 | 38 | 265 | 6.1 | 8.7 | 0.00 | 0.00 | 0.00 | 83 | 1006.5 |
| 20260510091254 | 38 | 300 | 4.3 | 8.7 | 0.00 | 0.00 | 0.00 | 83 | 1006.6 |
| 20260510090750 | 38 | 288 | 9.6 | 12.2 | 0.00 | 0.00 | 0.00 | 83 | 1006.4 |
| 20260510090248 | 38 | 271 | 7.0 | 13.0 | 0.00 | 0.00 | 0.00 | 83 | 1006.6 |
| 20260510085743 | 38 | 267 | 9.6 | 11.3 | 0.00 | 0.00 | 0.00 | 83 | 1006.5 |
| 20260510085237 | 38 | 278 | 5.2 | 12.2 | 0.00 | 0.00 | 0.00 | 83 | 1006.4 |
| 20260510084734 | 39 | 288 | 11.3 | 14.8 | 0.00 | 0.00 | 0.00 | 82 | 1006.4 |
| 20260510084231 | 38 | 273 | 6.1 | 13.9 | 0.00 | 0.00 | 0.00 | 82 | 1006.3 |
| 20260510083727 | 39 | 266 | 4.3 | 8.7 | 0.00 | 0.00 | 0.00 | 82 | 1006.2 |
| 20260510083225 | 39 | 263 | 7.8 | 11.3 | 0.00 | 0.00 | 0.00 | 82 | 1006.3 |
| 20260510082720 | 39 | 288 | 7.8 | 7.8 | 0.00 | 0.00 | 0.00 | 82 | 1006.1 |
| 20260510082217 | 39 | 274 | 6.1 | 12.2 | 0.00 | 0.00 | 0.00 | 80 | 1006.4 |
| 20260510081716 | 39 | 260 | 4.3 | 10.4 | 0.00 | 0.00 | 0.00 | 81 | 1006.2 |
| 20260510081212 | 39 | 292 | 7.8 | 11.3 | 0.00 | 0.00 | 0.00 | 80 | 1006.3 |
| 20260510080707 | 40 | 259 | 9.6 | 11.3 | 0.00 | 0.00 | 0.00 | 80 | 1006.1 |
| 20260510080203 | 40 | 266 | 7.0 | 15.6 | 0.00 | 0.00 | 0.00 | 79 | 1006.2 |
| 20260510075700 | 40 | 299 | 9.6 | 13.9 | 0.00 | 0.00 | 0.00 | 78 | 1006.0 |
| 20260510075158 | 40 | 268 | 4.3 | 9.6 | 0.00 | 0.00 | 0.00 | 78 | 1006.0 |
| 20260510074655 | 41 | 273 | 9.6 | 11.3 | 0.00 | 0.00 | 0.00 | 78 | 1005.9 |
| 20260510074150 | 41 | 247 | 6.1 | 9.6 | 0.00 | 0.00 | 0.00 | 77 | 1006.1 |
| 20260510073647 | 41 | 268 | 7.0 | 9.6 | 0.00 | 0.00 | 0.00 | 78 | 1005.7 |
| 20260510073143 | 41 | 273 | 5.2 | 9.6 | 0.00 | 0.00 | 0.00 | 77 | 1005.8 |
| 20260510072639 | 41 | 255 | 6.1 | 11.3 | 0.00 | 0.00 | 0.00 | 77 | 1005.8 |
| 20260510072136 | 42 | 284 | 6.1 | 12.2 | 0.00 | 0.00 | 0.00 | 76 | 1005.9 |
| 20260510071632 | 42 | 266 | 7.0 | 12.2 | 0.00 | 0.00 | 0.00 | 76 | 1005.6 |
| 20260510071130 | 42 | 294 | 6.1 | 8.7 | 0.00 | 0.00 | 0.00 | 76 | 1005.6 |
| 20260510070627 | 42 | 301 | 7.8 | 10.4 | 0.00 | 0.00 | 0.00 | 75 | 1005.6 |
| 20260510070125 | 43 | 268 | 7.0 | 13.9 | 0.00 | 0.00 | 0.00 | 73 | 1005.7 |
| 20260510065620 | 43 | 252 | 8.7 | 13.0 | 0.00 | 0.00 | 0.00 | 72 | 1005.9 |
| 20260510065116 | 44 | 265 | 7.0 | 16.5 | 0.00 | 0.00 | 0.00 | 72 | 1005.4 |
| 20260510064612 | 44 | 287 | 8.7 | 15.6 | 0.00 | 0.00 | 0.00 | 72 | 1005.5 |
| 20260510064109 | 44 | 273 | 11.3 | 15.6 | 0.00 | 0.00 | 0.00 | 72 | 1005.3 |
| 20260510063601 | 44 | 272 | 9.6 | 13.9 | 0.00 | 0.00 | 0.00 | 72 | 1005.2 |
| 20260510063058 | 44 | 269 | 5.2 | 15.6 | 0.00 | 0.00 | 0.00 | 73 | 1005.1 |
| 20260510062553 | 44 | 267 | 7.8 | 10.4 | 0.00 | 0.00 | 0.00 | 74 | 1004.9 |
| 20260510062049 | 44 | 236 | 4.3 | 12.2 | 0.00 | 0.00 | 0.00 | 75 | 1004.8 |
| 20260510061545 | 44 | 240 | 4.3 | 7.8 | 0.00 | 0.00 | 0.00 | 76 | 1004.9 |
| 20260510061042 | 44 | 212 | 7.8 | 10.4 | 0.00 | 0.00 | 0.00 | 75 | 1004.9 |
| 20260510060538 | 44 | 252 | 3.5 | 9.6 | 0.00 | 0.00 | 0.00 | 76 | 1005.0 |
| 20260510060035 | 45 | 248 | 7.0 | 10.4 | 0.00 | 0.00 | 0.00 | 75 | 1004.9 |
| 20260510055531 | 45 | 228 | 4.3 | 11.3 | 0.00 | 0.00 | 0.00 | 74 | 1004.7 |
| 20260510055030 | 45 | 248 | 6.1 | 11.3 | 0.00 | 0.00 | 0.00 | 76 | 1004.6 |
| 20260510054525 | 45 | 234 | 6.1 | 11.3 | 0.00 | 0.00 | 0.00 | 76 | 1004.7 |
| 20260510054020 | 45 | 244 | 4.3 | 6.1 | 0.00 | 0.00 | 0.00 | 78 | 1004.8 |
| 20260510053515 | 45 | 259 | 7.0 | 8.7 | 0.00 | 0.00 | 0.00 | 78 | 1004.7 |
| 20260510053012 | 44 | 248 | 7.8 | 12.2 | 0.00 | 0.00 | 0.00 | 78 | 1004.7 |
| 20260510052508 | 44 | 258 | 5.2 | 7.8 | 0.00 | 0.00 | 0.00 | 80 | 1004.5 |
| 20260510052004 | 45 | 244 | 4.3 | 13.0 | 0.00 | 0.00 | 0.00 | 79 | 1004.7 |
| 20260510051500 | 45 | 280 | 7.8 | 11.3 | 0.00 | 0.00 | 0.00 | 79 | 1004.5 |
| 20260510050957 | 45 | 251 | 10.4 | 13.0 | 0.00 | 0.00 | 0.00 | 79 | 1004.5 |
| 20260510050454 | 45 | 254 | 8.7 | 11.3 | 0.00 | 0.00 | 0.00 | 80 | 1004.2 |
| 20260510045951 | 45 | 256 | 9.6 | 13.0 | 0.00 | 0.00 | 0.00 | 80 | 1004.5 |
| 20260510045448 | 45 | 275 | 9.6 | 13.0 | 0.00 | 0.00 | 0.00 | 80 | 1004.1 |
| 20260510044944 | 46 | 284 | 7.0 | 11.3 | 0.00 | 0.00 | 0.00 | 81 | 1004.3 |
| 20260510044441 | 45 | 263 | 7.8 | 9.6 | 0.00 | 0.00 | 0.00 | 81 | 1004.1 |
| 20260510043938 | 46 | 299 | 8.7 | 9.6 | 0.00 | 0.00 | 0.00 | 80 | 1003.9 |
| 20260510043434 | 46 | 280 | 4.3 | 11.3 | 0.00 | 0.00 | 0.00 | 80 | 1003.8 |
| 20260510042932 | 46 | 285 | 6.1 | 9.6 | 0.00 | 0.00 | 0.00 | 80 | 1004.0 |
| 20260510042428 | 46 | 291 | 4.3 | 10.4 | 0.00 | 0.00 | 0.00 | 80 | 1003.8 |
| 20260510041924 | 46 | 260 | 6.1 | 9.6 | 0.00 | 0.00 | 0.00 | 80 | 1003.8 |
| 20260510041421 | 46 | 255 | 6.1 | 7.8 | 0.00 | 0.00 | 0.00 | 80 | 1003.7 |
| 20260510040919 | 46 | 256 | 6.1 | 10.4 | 0.00 | 0.00 | 0.00 | 80 | 1003.7 |
| 20260510040415 | 46 | 263 | 2.6 | 8.7 | 0.00 | 0.00 | 0.00 | 80 | 1003.6 |
| 20260510035905 | 46 | 247 | 3.5 | 7.8 | 0.00 | 0.04 | 0.04 | 80 | 1003.6 |
| 20260510035402 | 47 | 263 | 5.2 | 8.7 | 0.00 | 0.04 | 0.04 | 80 | 1003.5 |
| 20260510034857 | 47 | 287 | 5.2 | 11.3 | 0.00 | 0.04 | 0.04 | 79 | 1003.3 |
| 20260510034356 | 47 | 280 | 8.7 | 14.8 | 0.00 | 0.04 | 0.04 | 79 | 1003.6 |
| 20260510033851 | 48 | 249 | 7.8 | 9.6 | 0.00 | 0.04 | 0.04 | 79 | 1003.6 |
| 20260510033348 | 48 | 265 | 7.0 | 13.0 | 0.00 | 0.04 | 0.04 | 82 | 1003.4 |
| 20260510032844 | 48 | 271 | 5.2 | 13.0 | 0.00 | 0.04 | 0.04 | 80 | 1003.6 |
| 20260510032341 | 48 | 277 | 5.2 | 13.9 | 0.00 | 0.04 | 0.04 | 82 | 1003.5 |
| 20260510031837 | 48 | 261 | 11.3 | 12.2 | 0.00 | 0.04 | 0.04 | 83 | 1003.6 |
| 20260510031333 | 48 | 255 | 7.8 | 13.0 | 0.00 | 0.04 | 0.04 | 83 | 1003.7 |
| 20260510030832 | 48 | 252 | 11.3 | 11.3 | 0.00 | 0.04 | 0.04 | 85 | 1003.4 |
| 20260510030329 | 49 | 265 | 4.3 | 14.8 | 0.00 | 0.04 | 0.04 | 86 | 1003.6 |
| 20260510025826 | 49 | 254 | 9.6 | 13.9 | 0.00 | 0.04 | 0.04 | 90 | 1003.5 |
| 20260510025324 | 49 | 251 | 7.8 | 13.0 | 0.00 | 0.04 | 0.04 | 92 | 1003.4 |
| 20260510024820 | 49 | 246 | 6.1 | 11.3 | 0.00 | 0.04 | 0.04 | 92 | 1003.3 |
| 20260510024318 | 50 | 259 | 7.0 | 12.2 | 0.00 | 0.04 | 0.04 | 92 | 1003.3 |
| 20260510023814 | 50 | 262 | 12.2 | 13.9 | 0.00 | 0.04 | 0.04 | 91 | 1003.3 |
| 20260510023310 | 50 | 263 | 8.7 | 9.6 | 0.00 | 0.04 | 0.04 | 92 | 1002.9 |
| 20260510022807 | 50 | 292 | 5.2 | 13.0 | 0.00 | 0.04 | 0.04 | 91 | 1002.8 |
| 20260510022307 | 50 | 264 | 11.3 | 17.4 | 0.00 | 0.04 | 0.04 | 91 | 1002.7 |
| 20260510021806 | 50 | 260 | 7.0 | 12.2 | 0.00 | 0.04 | 0.04 | 92 | 1002.8 |
| 20260510021304 | 50 | 266 | 7.8 | 11.3 | 0.00 | 0.04 | 0.04 | 92 | 1002.8 |
| 20260510020800 | 51 | 258 | 9.6 | 14.8 | 0.00 | 0.04 | 0.04 | 91 | 1002.4 |
| 20260510020300 | 51 | 249 | 13.0 | 13.0 | 0.00 | 0.04 | 0.04 | 91 | 1002.7 |
| 20260510015756 | 51 | 254 | 10.4 | 13.0 | 0.00 | 0.04 | 0.04 | 91 | 1002.6 |
| 20260510015252 | 50 | 228 | 7.8 | 12.2 | 0.00 | 0.04 | 0.04 | 92 | 1002.6 |
| 20260510014747 | 50 | 235 | 7.0 | 14.8 | 0.00 | 0.04 | 0.04 | 91 | 1002.2 |
| 20260510014245 | 50 | 234 | 7.8 | 12.2 | 0.00 | 0.04 | 0.04 | 92 | 1002.1 |
| 20260510013741 | 50 | 216 | 3.5 | 12.2 | 0.00 | 0.04 | 0.04 | 92 | 1002.1 |
| 20260510013236 | 50 | 223 | 9.6 | 13.0 | 0.00 | 0.04 | 0.04 | 92 | 1001.9 |
| 20260510012731 | 50 | 204 | 2.6 | 13.0 | 0.00 | 0.04 | 0.04 | 92 | 1001.9 |
| 20260510012226 | 50 | 206 | 4.3 | 12.2 | 0.00 | 0.04 | 0.04 | 92 | 1001.8 |
| 20260510011727 | 50 | 195 | 4.3 | 9.6 | 0.00 | 0.04 | 0.04 | 92 | 1001.7 |
| 20260510011222 | 50 | 239 | 7.0 | 11.3 | 0.00 | 0.04 | 0.04 | 93 | 1001.7 |
| 20260510010719 | 50 | 214 | 4.3 | 7.8 | 0.00 | 0.04 | 0.04 | 93 | 1001.7 |
| 20260510010210 | 50 | 229 | 6.1 | 11.3 | 0.00 | 0.04 | 0.04 | 93 | 1001.5 |
| 20260510005707 | 50 | 213 | 4.3 | 7.8 | 0.00 | 0.04 | 0.04 | 93 | 1001.5 |
| 20260510005203 | 50 | 217 | 8.7 | 10.4 | 0.00 | 0.04 | 0.04 | 93 | 1001.1 |
| 20260510004702 | 50 | 207 | 4.3 | 10.4 | 0.00 | 0.04 | 0.04 | 93 | 1001.3 |
| 20260510004159 | 50 | 199 | 4.3 | 9.6 | 0.00 | 0.04 | 0.04 | 93 | 1001.1 |
| 20260510003656 | 50 | 214 | 6.1 | 11.3 | 0.00 | 0.04 | 0.04 | 93 | 1001.0 |
| 20260510003151 | 50 | 236 | 3.5 | 12.2 | 0.00 | 0.04 | 0.04 | 93 | 1001.0 |
| 20260510002646 | 50 | 226 | 6.1 | 10.4 | 0.00 | 0.04 | 0.04 | 93 | 1000.7 |
| 20260510002143 | 50 | 218 | 5.2 | 8.7 | 0.00 | 0.04 | 0.04 | 93 | 1000.8 |
| 20260510001640 | 50 | 232 | 4.3 | 14.8 | 0.00 | 0.04 | 0.04 | 93 | 1000.6 |
| 20260510001139 | 51 | 246 | 4.3 | 15.6 | 0.00 | 0.04 | 0.04 | 93 | 1000.6 |
| 20260510000639 | 50 | 152 | 3.5 | 11.3 | 0.00 | 0.04 | 0.04 | 93 | 1000.6 |
| 20260510000137 | 51 | 246 | 5.2 | 7.8 | 0.00 | 0.04 | 0.04 | 93 | 1000.5 |
| 20260509235633 | 51 | 232 | 4.3 | 11.3 | 0.00 | 0.04 | 0.04 | 92 | 1000.4 |
| 20260509235130 | 51 | 229 | 7.0 | 11.3 | 0.00 | 0.04 | 0.04 | 93 | 1000.4 |
| 20260509234625 | 51 | 217 | 5.2 | 12.2 | 0.00 | 0.04 | 0.04 | 92 | 1000.5 |
| 20260509234123 | 52 | 252 | 5.2 | 11.3 | 0.00 | 0.04 | 0.04 | 92 | 1000.3 |
| 20260509233620 | 52 | 220 | 12.2 | 18.2 | 0.00 | 0.04 | 0.04 | 91 | 1000.2 |
| 20260509233118 | 52 | 208 | 6.1 | 13.0 | 0.00 | 0.04 | 0.04 | 91 | 1000.1 |
| 20260509232614 | 51 | 164 | 5.2 | 7.8 | 0.00 | 0.04 | 0.04 | 92 | 999.7 |
| 20260509232111 | 52 | 199 | 6.1 | 14.8 | 0.00 | 0.04 | 0.04 | 92 | 999.7 |
| 20260509231608 | 52 | 225 | 13.0 | 13.9 | 0.00 | 0.04 | 0.04 | 92 | 1000.0 |
| 20260509231105 | 52 | 226 | 7.0 | 13.0 | 0.00 | 0.04 | 0.04 | 92 | 1000.0 |
| 20260509230602 | 51 | 202 | 2.6 | 11.3 | 0.00 | 0.04 | 0.04 | 93 | 1000.0 |
| 20260509230059 | 51 | 186 | 3.5 | 4.3 | 0.02 | 0.04 | 0.04 | 93 | 1000.0 |
| 20260509225555 | 51 | 171 | 1.7 | 3.5 | 0.07 | 0.04 | 0.04 | 94 | 1000.2 |
| 20260509225050 | 51 | 196 | 3.5 | 6.1 | 0.17 | 0.03 | 0.03 | 94 | 1000.4 |
| 20260509224546 | 51 | 194 | 5.2 | 6.1 | 0.09 | 0.02 | 0.02 | 94 | 1000.2 |
| 20260509224043 | 52 | 199 | 4.3 | 9.6 | 0.02 | 0.00 | 0.00 | 87 | 1000.2 |
| 20260509223540 | 53 | 199 | 6.1 | 7.8 | 0.00 | 0.00 | 0.00 | 84 | 999.9 |
| 20260509223038 | 53 | 165 | 2.6 | 6.1 | 0.00 | 0.00 | 0.00 | 83 | 1000.0 |
| 20260509222533 | 53 | 188 | 1.7 | 7.8 | 0.00 | 0.00 | 0.00 | 82 | 1000.0 |
| 20260509222035 | 53 | 158 | 3.5 | 6.1 | 0.00 | 0.00 | 0.00 | 82 | 1000.3 |
| 20260509221525 | 53 | 171 | 1.7 | 4.3 | 0.00 | 0.00 | 0.00 | 81 | 1000.2 |
| 20260509221022 | 53 | 191 | 2.6 | 5.2 | 0.00 | 0.00 | 0.00 | 82 | 1000.2 |
| 20260509220518 | 53 | 175 | 7.0 | 9.6 | 0.00 | 0.00 | 0.00 | 82 | 1000.1 |
| 20260509220014 | 53 | 150 | 5.2 | 6.1 | 0.00 | 0.00 | 0.00 | 82 | 1000.4 |
| 20260509215509 | 53 | 131 | 4.3 | 5.2 | 0.00 | 0.00 | 0.00 | 82 | 1000.4 |
| 20260509215007 | 53 | 145 | 4.3 | 8.7 | 0.00 | 0.00 | 0.00 | 82 | 1000.3 |
| 20260509214504 | 53 | 142 | 6.1 | 8.7 | 0.00 | 0.00 | 0.00 | 82 | 1000.4 |
| 20260509214001 | 53 | 145 | 3.5 | 6.1 | 0.00 | 0.00 | 0.00 | 82 | 1000.3 |
| 20260509213457 | 53 | 192 | 2.6 | 6.1 | 0.00 | 0.00 | 0.00 | 82 | 1000.3 |
| 20260509212954 | 53 | 188 | 2.6 | 9.6 | 0.00 | 0.00 | 0.00 | 82 | 1000.4 |
| 20260509212451 | 53 | 143 | 2.6 | 7.8 | 0.00 | 0.00 | 0.00 | 82 | 1000.2 |
| 20260509211947 | 54 | 137 | 6.1 | 7.0 | 0.00 | 0.00 | 0.00 | 81 | 1000.4 |
| 20260509211443 | 54 | 189 | 2.6 | 5.2 | 0.00 | 0.00 | 0.00 | 81 | 1000.3 |
| 20260509210940 | 54 | 182 | 2.6 | 7.0 | 0.00 | 0.00 | 0.00 | 81 | 1000.3 |
| 20260509210437 | 54 | 176 | 3.5 | 6.1 | 0.00 | 0.00 | 0.00 | 80 | 1000.3 |
| 20260509205932 | 54 | 187 | 2.6 | 6.1 | 0.00 | 0.00 | 0.00 | 80 | 1000.4 |
| 20260509205427 | 55 | 146 | 2.6 | 4.3 | 0.00 | 0.00 | 0.00 | 80 | 1000.8 |
| 20260509204923 | 55 | 211 | 4.3 | 8.7 | 0.00 | 0.00 | 0.00 | 80 | 1000.8 |
| 20260509204420 | 55 | 181 | 7.0 | 10.4 | 0.00 | 0.00 | 0.00 | 79 | 1000.5 |
| 20260509203917 | 55 | 186 | 7.0 | 16.5 | 0.00 | 0.00 | 0.00 | 79 | 1000.5 |
| 20260509203412 | 55 | 156 | 4.3 | 9.6 | 0.00 | 0.00 | 0.00 | 78 | 1000.6 |
| 20260509202910 | 56 | 186 | 4.3 | 7.8 | 0.00 | 0.00 | 0.00 | 77 | 1000.5 |
| 20260509202406 | 56 | 195 | 2.6 | 7.0 | 0.00 | 0.00 | 0.00 | 77 | 1000.4 |
| 20260509201901 | 56 | 175 | 3.5 | 10.4 | 0.00 | 0.00 | 0.00 | 77 | 1000.4 |
| 20260509201356 | 56 | 202 | 6.1 | 10.4 | 0.00 | 0.00 | 0.00 | 76 | 1000.3 |
| 20260509200854 | 56 | 200 | 11.3 | 16.5 | 0.00 | 0.00 | 0.00 | 76 | 1000.6 |
| 20260509200354 | 57 | 192 | 5.2 | 12.2 | 0.00 | 0.00 | 0.00 | 75 | 1000.5 |
| 20260509195851 | 57 | 160 | 3.5 | 15.6 | 0.00 | 0.00 | 0.00 | 74 | 1000.5 |
| 20260509195345 | 57 | 185 | 4.3 | 11.3 | 0.00 | 0.00 | 0.00 | 73 | 1000.9 |
| 20260509194845 | 58 | 194 | 2.6 | 7.8 | 0.00 | 0.00 | 0.00 | 73 | 1000.8 |
| 20260509194342 | 58 | 174 | 2.6 | 10.4 | 0.00 | 0.00 | 0.00 | 72 | 1000.7 |
| 20260509193838 | 58 | 205 | 7.8 | 17.4 | 0.00 | 0.00 | 0.00 | 71 | 1000.8 |
| 20260509193338 | 59 | 187 | 5.2 | 13.0 | 0.00 | 0.00 | 0.00 | 70 | 1000.8 |
| 20260509192835 | 60 | 184 | 5.2 | 9.6 | 0.00 | 0.00 | 0.00 | 69 | 1000.7 |
| 20260509192331 | 61 | 198 | 1.7 | 8.7 | 0.00 | 0.00 | 0.00 | 66 | 1000.7 |
| 20260509191826 | 59 | 181 | 9.6 | 11.3 | 0.00 | 0.00 | 0.00 | 69 | 1000.7 |
| 20260509191322 | 58 | 201 | 6.1 | 13.9 | 0.00 | 0.00 | 0.00 | 71 | 1001.0 |
| 20260509190818 | 57 | 236 | 8.7 | 19.1 | 0.00 | 0.00 | 0.00 | 71 | 1001.3 |